Temperature
15 15 16 16 16 16 16 16 16 16 16 16 16 16 16 16 16 16 16 16 16 16 16 16 16 15 15 16 16 16 15 15 15 15 15 15 15 15 15 15 15 14 15
16 15 16 16 16 16 16 16 16 16 16 16 16 16 16 16 16 16 16 16 16 16 16 15 15 15 15 15 15 15 15 15 15 15 15 15 15 15 15 15 15 14 15
15 15 15 15 16 16 16 16 16 16 16 16 16 16 16 16 16 16 16 16 16 16 16 16 15 15 15 15 15 15 15 15 15 15 15 14 14 15 15 15 15 15 15
15 15 15 15 16 16 16 16 16 16 16 16 16 16 16 16 16 16 16 16 16 16 16 16 15 15 15 15 15 15 15 15 15 15 14 14 14 15 15 15 15 15 15
15 15 15 15 15 16 16 16 16 16 16 16 16 16 16 16 16 16 16 16 16 15 15 15 15 15 15 15 15 15 15 15 15 14 14 14 14 14 15 15 15 15 14
15 15 15 15 15 15 16 16 16 16 16 16 16 16 16 16 16 16 16 16 16 15 15 15 15 15 15 15 15 15 15 15 15 14 14 14 14 14 15 14 14 14 14
14 14 15 15 15 15 16 16 16 16 15 15 16 16 16 16 16 16 16 16 15 15 15 15 15 15 15 15 15 15 15 15 14 14 14 14 14 14 14 14 14 14 14
14 14 15 15 15 15 15 15 15 15 15 15 15 15 15 15 15 15 15 15 15 15 15 15 15 15 15 15 15 15 15 14 14 14 14 14 14 14 14 14 14 14 14
14 14 14 15 15 15 15 15 15 15 15 15 15 15 15 15 15 15 15 15 15 15 15 15 15 15 15 15 15 14 14 14 14 13 14 14 14 14 14 14 14 14 14
14 14 14 14 14 14 14 14 15 15 15 15 15 15 15 15 15 15 15 15 15 15 15 15 15 15 14 14 14 14 14 14 13 13 13 13 14 14 14 14 14 14 14
14 14 14 14 14 14 14 14 14 14 14 14 14 14 14 14 14 14 14 14 14 14 14 14 14 14 14 14 14 14 14 13 13 13 13 13 14 14 14 14 14 14 14
13 14 14 14 14 14 14 14 14 14 14 14 14 14 14 14 14 14 14 14 14 14 14 14 14 14 14 14 14 14 13 13 13 13 13 13 13 13 13 13 13 13 13
13 13 13 13 13 13 13 13 14 14 14 14 14 14 14 14 14 14 14 14 14 14 14 14 14 13 13 13 13 13 13 13 13 13 13 13 13 13 13 13 13 13 13
13 13 13 13 13 13 13 13 13 13 13 13 13 13 13 13 13 14 14 14 13 13 14 13 13 13 13 13 13 13 13 13 13 12 12 13 13 13 13 13 13 13 13
12 12 12 13 13 13 13 13 13 13 13 13 13 13 13 13 13 13 13 13 13 13 13 13 13 13 13 13 12 12 12 12 12 12 12 12 12 12 12 12 12 12 12
12 12 12 12 12 12 12 13 13 13 12 12 12 13 13 13 13 13 13 13 13 13 13 13 12 12 12 12 12 12 12 12 12 12 12 12 12 12 12 12 12 12 12
11 12 12 12 12 12 12 12 12 12 12 12 12 12 12 12 12 12 12 12 12 12 12 12 12 12 12 12 12 12 12 12 11 11 11 11 11 11 11 11 11 11 11
11 11 11 11 11 11 12 12 12 12 12 12 12 12 12 12 12 12 12 12 12 12 12 12 12 11 11 11 11 11 11 11 11 10 10 10 10 10 11 11 11 11 11
11 11 11 11 11 11 11 11 11 11 11 11 11 11 11 11 11 11 11 11 12 12 11 11 11 11 11 11 11 11 11 10 10 10 10 10 10 10 10 10 10 10 10
11 11 11 11 11 11 10 10 10 11 11 11 11 11 11 11 11 11 11 11 11 11 11 11 11 11 11 10 10 10 10 10 9 9 9 9 9 9 9 9 9 9 9
10 10 10 10 10 10 10 10 10 10 10 10 10 10 10 10 10 10 10 11 11 10 10 10 10 10 10 10 9 9 9 9 9 9 8 8 8 8 8 8 8 8 9
10 10 10 10 10 10 10 10 10 10 10 10 10 10 10 10 10 10 10 10 10 10 10 10 10 10 9 9 9 8 8 8 8 8 8 8 8 8 8 8 8 8 8
10 10 10 9 10 10 9 9 9 9 9 9 9 10 9 10 10 10 10 9 9 9 9 9 9 9 9 8 8 8 8 9 7 7 7 7 7 7 7 7 7 7 7
10 10 9 9 9 9 9 9 9 9 9 9 9 9 9 9 9 9 9 9 9 9 9 9 9 9 8 8 8 7 7 7 6 7 6 6 6 7 7 7 7 6 6
10 9 9 9 9 9 9 9 9 9 9 9 9 9 9 9 9 9 9 8 8 8 8 8 8 8 8 8 7 7 6 6 6 6 6 6 6 6 6 6 6 6 6
9 9 9 9 9 9 9 9 9 9 9 8 8 8 8 8 8 8 8 8 8 8 8 8 8 7 7 7 7 6 6 5 5 5 5 5 5 5 6 6 5 5 5
Wind_Speed
9 10 11 12 12 12 12 12 12 13 12 11 11 10 10 10 10 10 10 9 9 9 9 9 9 9 9 9 9 9 9 9 9 9 8 8 7 7 7 5 3 6 8
11 11 12 12 12 12 12 12 12 12 12 11 11 10 10 9 9 9 9 9 9 9 9 8 9 9 8 8 8 8 7 7 7 7 5 5 6 5 5 5 5 6 6
11 12 13 12 13 13 13 12 12 12 12 11 11 10 9 9 9 8 8 8 8 8 8 8 8 8 7 8 7 7 6 6 5 4 1 3 5 5 4 4 4 4 4
11 12 13 13 14 13 13 12 12 12 11 11 10 10 9 9 8 8 8 8 7 7 7 7 7 7 6 6 6 6 5 5 3 1 0 2 3 5 3 2 2 2 2
10 11 13 13 14 14 13 13 12 12 11 11 10 10 9 8 8 7 8 7 7 7 7 7 7 6 6 5 5 4 4 3 1 3 1 1 1 3 2 1 1 1 1
10 11 13 13 14 13 13 12 12 11 11 10 10 9 9 8 7 7 7 7 6 7 6 6 6 6 5 4 4 3 3 1 3 0 0 1 0 2 1 1 1 1 1
10 10 13 13 13 13 12 11 11 11 11 10 10 9 9 8 8 7 6 6 6 6 5 5 5 4 4 3 3 2 2 1 2 1 1 1 1 2 2 2 2 3 3
10 10 12 13 13 13 12 12 11 11 11 10 10 9 9 8 7 7 6 6 6 5 5 4 4 3 3 2 2 1 1 2 3 2 2 2 2 2 3 4 4 4 4
10 10 10 11 11 12 12 11 11 10 10 10 9 9 9 8 7 6 6 5 5 5 5 4 3 2 2 2 1 1 1 3 5 3 3 2 1 4 4 5 5 5 5
9 9 9 9 9 9 10 11 11 10 10 10 9 9 8 8 7 6 6 6 5 5 5 4 4 3 2 1 1 1 2 5 5 3 3 2 2 5 6 6 7 7 7
8 7 7 8 8 8 8 9 9 9 9 8 8 8 6 5 5 5 7 6 6 6 5 5 4 3 1 1 1 1 4 4 3 3 3 3 4 6 6 7 7 7 8
8 7 6 7 7 7 7 7 6 6 6 6 5 5 4 4 4 4 6 6 5 5 4 4 3 1 1 1 0 2 3 3 3 3 2 3 5 6 6 6 7 7 8
8 7 6 6 6 6 5 5 5 5 4 5 5 4 3 4 3 3 2 2 2 2 2 2 1 1 2 2 2 2 3 3 3 3 3 4 5 6 6 7 7 7 8
7 7 5 5 6 5 5 5 5 4 4 4 4 4 3 3 3 3 2 2 2 2 2 2 2 2 2 2 2 2 2 2 3 3 3 5 5 6 6 6 6 6 6
7 6 5 5 5 5 5 4 5 4 4 4 4 4 4 3 3 2 2 2 3 3 2 2 2 2 2 2 2 3 3 3 3 2 2 4 5 6 6 6 6 6 6
6 6 5 5 5 5 5 4 5 5 5 5 5 4 4 4 3 3 3 3 3 3 2 2 2 2 2 2 2 2 2 3 2 2 2 2 4 6 7 7 7 7 7
6 6 6 5 5 5 5 5 5 5 5 5 5 5 4 4 3 3 3 3 3 3 3 2 2 2 2 2 2 2 2 2 2 2 2 2 2 5 7 8 8 8 8
6 6 6 5 5 4 4 5 5 5 5 5 5 5 5 5 4 3 3 3 4 3 3 2 2 1 1 2 2 2 2 1 2 2 2 3 3 4 5 8 9 9 9
5 5 5 5 5 4 4 4 5 5 5 5 5 5 5 5 4 3 3 3 4 3 3 2 2 2 2 2 2 2 2 1 1 1 2 3 4 5 4 5 7 9 10
5 5 5 5 5 4 3 3 3 4 4 4 5 5 5 5 4 4 3 4 4 3 3 3 2 2 2 2 2 1 1 1 1 1 1 3 4 5 5 5 5 5 7
5 5 4 4 4 3 2 1 1 2 2 2 3 5 4 4 4 4 3 3 3 3 3 3 3 2 2 2 2 1 1 1 1 1 1 1 3 4 5 6 5 5 5
4 4 4 3 3 3 1 1 1 1 1 2 2 3 3 4 4 4 3 2 3 2 2 3 3 2 2 2 2 2 2 3 2 0 0 1 2 3 4 5 5 6 6
4 4 3 3 3 3 2 2 2 1 1 1 1 1 2 3 3 3 3 3 2 2 2 2 3 2 2 2 2 2 2 2 2 2 1 1 2 3 3 4 5 5 6
4 4 4 3 3 3 3 3 3 2 1 1 0 0 1 2 2 2 2 2 2 2 2 2 2 2 2 2 1 2 3 3 3 3 2 1 2 3 3 3 4 4 6
5 4 4 4 3 3 3 3 3 2 1 1 1 1 0 0 1 1 1 1 1 2 2 2 2 2 2 2 2 2 3 3 4 4 4 3 3 2 2 3 3 4 5
5 5 4 4 3 3 3 3 3 3 3 2 2 2 1 1 1 1 1 1 1 1 2 2 2 2 2 2 2 2 3 3 3 4 5 5 5 3 3 2 2 3 4
Wind_Direction
158 156 150 148 142 138 135 130 126 124 122 121 119 118 116 117 116 113 111 106 102 101 101 102 100 99 96 92 89 86 86 84 81 78 73 73 70 71 74 69 63 88 78
152 153 148 147 142 139 135 129 124 124 122 120 119 117 115 114 115 112 110 108 102 100 101 103 102 99 95 93 92 88 87 85 84 81 80 97 86 71 70 62 40 66 82
148 151 151 146 140 137 133 130 127 126 124 121 120 117 113 107 109 111 111 108 104 100 99 99 100 101 94 90 91 90 89 91 87 85 197 98 94 81 65 70 77 77 84
146 149 150 143 139 137 134 131 128 127 125 123 120 116 111 105 103 112 112 109 106 101 98 98 96 96 97 94 91 90 88 90 92 243 161 72 84 83 64 64 74 84 74
141 142 139 139 136 133 132 131 129 127 125 122 119 115 111 107 102 106 110 108 107 103 100 98 96 92 94 96 95 92 89 91 136 255 67 72 76 83 51 41 42 36 11
138 136 134 135 131 129 129 128 127 126 124 121 119 115 111 106 102 97 102 103 105 103 101 99 97 93 93 95 93 89 88 93 246 319 351 278 6 83 324 322 304 286 288
130 127 130 126 125 123 121 123 124 122 121 117 115 111 107 102 97 89 94 96 98 104 104 103 100 97 95 90 84 80 77 305 293 310 296 298 15 2 305 298 289 275 269
126 118 118 115 117 117 116 116 118 116 114 113 110 106 102 97 93 87 87 93 93 94 99 103 105 102 99 92 81 71 54 287 276 288 291 293 22 320 296 291 285 276 268
117 117 118 119 121 117 114 112 111 111 111 111 106 102 98 94 90 85 82 90 89 85 82 79 82 90 90 79 55 32 320 282 276 280 286 291 0 301 291 287 279 269 265
116 114 114 118 120 123 119 109 106 104 105 108 103 99 98 96 90 83 79 80 80 76 74 68 64 59 52 52 24 350 296 266 271 280 281 317 338 297 290 286 282 272 266
116 113 115 113 111 114 116 112 109 104 99 106 107 104 108 100 93 89 71 74 77 74 70 62 57 53 34 115 75 330 270 276 292 297 304 359 313 297 293 293 291 283 273
125 115 117 114 111 111 111 112 108 106 102 99 105 108 100 90 78 77 85 75 75 74 77 60 50 56 300 304 125 248 282 297 298 301 336 360 316 306 300 299 295 292 286
126 112 105 111 107 106 103 103 98 98 96 90 85 82 86 86 79 68 74 77 71 57 47 48 13 5 339 337 317 304 314 309 305 312 352 6 328 319 313 309 304 298 296
122 112 103 103 106 102 100 97 95 89 85 80 78 69 68 68 63 53 51 44 31 23 13 1 339 345 330 322 311 309 311 306 308 317 2 19 351 341 330 318 315 313 309
117 111 102 100 104 105 99 94 90 83 79 77 70 64 59 59 52 40 39 39 27 14 4 351 338 334 319 320 318 315 314 309 310 313 349 40 17 6 356 348 338 331 327
117 112 102 92 92 100 99 97 86 80 74 69 65 57 54 53 47 40 36 28 21 10 360 349 350 334 327 328 327 326 324 320 321 327 336 34 45 26 16 8 1 354 348
117 112 104 94 87 90 95 93 86 81 77 67 59 52 49 47 42 35 29 26 16 2 356 354 358 343 339 334 331 337 337 334 334 348 359 357 28 42 30 19 13 8 3
113 111 102 99 91 83 84 86 85 78 75 68 63 52 44 40 35 35 32 28 11 1 360 357 349 342 337 333 329 333 334 340 347 16 33 33 24 21 36 33 25 20 13
118 116 108 100 92 83 80 84 84 78 73 68 61 55 44 38 33 38 33 25 15 11 9 359 346 338 334 335 326 329 329 334 15 39 50 45 38 29 25 37 32 26 18
115 114 113 108 100 96 94 95 91 81 72 67 59 51 43 38 32 36 37 26 21 20 14 0 347 343 335 329 310 312 331 354 39 42 48 50 41 30 20 12 7 13 18
125 122 122 118 114 111 107 96 92 88 79 71 60 50 40 34 31 34 33 32 26 23 10 360 350 339 345 336 282 269 232 199 152 61 46 32 33 21 13 8 4 357 357
143 139 131 130 131 127 116 100 64 90 95 70 61 52 34 32 29 30 19 22 22 11 11 5 356 336 341 356 315 282 262 212 180 177 11 16 8 8 6 6 5 4 358
160 159 152 161 162 153 154 150 144 141 155 152 93 58 31 26 27 27 23 12 11 1 360 1 354 341 329 343 345 306 287 278 300 219 230 316 348 348 350 357 360 2 358
171 164 168 174 174 169 173 186 195 200 198 174 123 75 40 33 22 17 15 6 360 354 352 349 343 325 308 301 298 308 296 300 279 274 226 243 307 320 331 337 348 355 354
173 169 172 171 172 179 189 192 206 213 205 181 199 232 297 359 358 354 344 335 336 344 336 323 317 315 295 288 289 285 272 273 265 270 278 284 293 293 315 314 330 342 346
173 174 176 178 182 187 193 202 212 218 219 220 228 240 254 259 264 272 276 287 293 305 312 309 299 288 278 272 269 270 277 272 274 272 278 292 294 290 289 289 305 331 339
Height
1522 1524 1526 1528 1530 1532 1533 1534 1535 1536 1537 1537 1537 1538 1538 1538 1539 1539 1539 1539 1539 1540 1540 1540 1539 1539 1539 1539 1539 1539 1539 1538 1538 1538 1537 1537 1537 1537 1537 1537 1537 1537 1536
1520 1523 1525 1528 1530 1532 1533 1534 1535 1536 1536 1537 1538 1538 1538 1539 1539 1540 1540 1540 1540 1540 1540 1540 1540 1540 1540 1540 1539 1539 1539 1539 1539 1539 1538 1538 1538 1538 1537 1537 1537 1537 1537
1520 1523 1525 1528 1530 1532 1533 1534 1535 1536 1537 1537 1538 1538 1539 1539 1539 1540 1540 1540 1540 1541 1541 1541 1541 1541 1540 1540 1540 1540 1540 1539 1539 1539 1539 1540 1539 1538 1538 1538 1537 1537 1537
1520 1523 1525 1528 1530 1532 1533 1534 1535 1536 1537 1538 1538 1538 1539 1539 1540 1540 1540 1540 1541 1541 1541 1541 1541 1541 1541 1541 1540 1540 1540 1540 1539 1539 1540 1540 1540 1538 1538 1538 1538 1537 1537
1520 1523 1525 1527 1530 1531 1533 1534 1536 1536 1537 1538 1538 1539 1539 1539 1539 1540 1540 1540 1541 1541 1541 1541 1541 1541 1541 1540 1540 1540 1540 1540 1539 1540 1540 1540 1539 1539 1538 1538 1538 1537 1537
1521 1523 1525 1528 1530 1531 1533 1534 1535 1536 1537 1538 1538 1539 1539 1539 1539 1540 1540 1540 1540 1540 1540 1540 1541 1541 1540 1540 1540 1540 1540 1539 1539 1540 1540 1540 1540 1538 1538 1538 1538 1537 1537
1521 1523 1525 1528 1530 1531 1533 1534 1536 1536 1537 1538 1538 1539 1539 1539 1539 1539 1539 1540 1540 1540 1540 1540 1540 1540 1540 1540 1540 1539 1539 1539 1539 1539 1539 1539 1538 1538 1537 1537 1537 1537 1536
1521 1523 1525 1527 1530 1531 1533 1534 1536 1536 1537 1538 1538 1539 1539 1539 1539 1539 1539 1539 1539 1539 1540 1539 1539 1539 1539 1539 1539 1539 1538 1538 1538 1538 1538 1538 1537 1536 1536 1536 1536 1536 1536
1521 1523 1525 1527 1530 1531 1533 1534 1535 1536 1537 1538 1538 1539 1539 1539 1539 1539 1539 1539 1539 1539 1539 1539 1539 1539 1538 1538 1538 1538 1537 1537 1537 1537 1537 1536 1535 1535 1535 1535 1535 1535 1534
1521 1523 1525 1527 1529 1531 1533 1534 1535 1536 1537 1537 1538 1538 1539 1538 1538 1538 1538 1538 1538 1538 1538 1538 1538 1538 1537 1537 1537 1537 1536 1536 1537 1536 1535 1535 1534 1534 1534 1533 1533 1533 1533
1521 1523 1525 1527 1529 1531 1532 1533 1535 1536 1536 1537 1537 1538 1538 1538 1538 1537 1537 1537 1537 1537 1537 1537 1537 1536 1536 1536 1536 1535 1535 1535 1535 1534 1534 1532 1532 1532 1532 1532 1531 1531 1531
1520 1522 1525 1527 1528 1530 1532 1533 1534 1535 1535 1536 1537 1537 1538 1537 1537 1537 1536 1537 1537 1536 1536 1536 1536 1535 1535 1535 1534 1534 1534 1533 1533 1532 1531 1530 1530 1530 1530 1529 1529 1529 1529
1520 1522 1524 1526 1528 1530 1531 1532 1533 1534 1535 1535 1536 1536 1537 1537 1536 1536 1536 1536 1536 1535 1535 1535 1534 1534 1534 1533 1533 1532 1532 1531 1531 1530 1529 1528 1528 1528 1527 1527 1527 1527 1526
1520 1522 1524 1526 1528 1529 1530 1531 1532 1533 1534 1534 1535 1535 1535 1536 1535 1535 1535 1535 1534 1534 1534 1533 1533 1533 1532 1532 1531 1531 1530 1529 1529 1528 1527 1526 1526 1525 1525 1525 1524 1524 1523
1520 1522 1524 1526 1527 1529 1530 1531 1531 1532 1533 1533 1534 1534 1534 1534 1534 1534 1534 1533 1533 1533 1532 1532 1531 1531 1531 1530 1529 1529 1528 1528 1527 1526 1525 1524 1524 1523 1523 1522 1522 1521 1521
1520 1522 1524 1525 1527 1528 1529 1530 1530 1531 1531 1532 1533 1533 1533 1533 1533 1533 1533 1532 1532 1531 1531 1530 1530 1529 1529 1528 1528 1527 1526 1526 1525 1524 1523 1522 1521 1521 1520 1520 1519 1518 1518
1520 1522 1524 1525 1526 1527 1528 1529 1530 1530 1530 1531 1531 1532 1532 1532 1532 1532 1531 1531 1530 1530 1529 1529 1528 1528 1527 1527 1526 1525 1524 1523 1523 1522 1521 1520 1519 1519 1518 1517 1517 1516 1515
1520 1522 1523 1525 1526 1526 1527 1528 1529 1529 1530 1530 1530 1531 1531 1531 1531 1531 1530 1529 1529 1528 1528 1527 1527 1526 1526 1525 1524 1523 1522 1521 1520 1520 1519 1518 1518 1517 1516 1515 1514 1513 1513
1520 1522 1523 1524 1525 1526 1526 1527 1528 1528 1529 1529 1529 1529 1529 1529 1529 1529 1529 1528 1527 1527 1526 1526 1525 1525 1524 1523 1522 1521 1520 1519 1518 1518 1517 1516 1516 1515 1514 1513 1512 1511 1510
1520 1522 1523 1524 1525 1526 1527 1527 1527 1528 1528 1528 1528 1528 1528 1528 1528 1528 1527 1526 1526 1525 1525 1524 1523 1523 1522 1521 1520 1519 1518 1517 1516 1516 1515 1515 1514 1513 1512 1510 1509 1508 1507
1520 1522 1523 1524 1525 1525 1526 1527 1527 1527 1528 1527 1527 1527 1527 1527 1527 1526 1526 1525 1524 1524 1523 1522 1522 1521 1520 1519 1518 1518 1516 1515 1515 1514 1513 1513 1512 1511 1510 1508 1507 1506 1505
1520 1521 1522 1523 1524 1525 1526 1527 1527 1527 1527 1527 1526 1526 1526 1526 1525 1524 1524 1523 1523 1522 1521 1520 1520 1519 1518 1517 1517 1517 1517 1516 1513 1512 1511 1510 1510 1509 1508 1506 1505 1503 1502
1519 1521 1521 1522 1523 1524 1525 1525 1526 1526 1526 1526 1525 1525 1525 1524 1524 1523 1522 1522 1521 1521 1520 1519 1518 1517 1516 1516 1515 1516 1516 1515 1513 1511 1509 1508 1508 1507 1505 1504 1502 1501 1499
1519 1520 1521 1522 1523 1523 1524 1524 1525 1525 1525 1525 1524 1523 1523 1522 1521 1521 1520 1520 1519 1518 1518 1517 1516 1515 1515 1514 1513 1513 1513 1512 1512 1510 1508 1507 1505 1504 1503 1501 1500 1498 1496
1518 1519 1520 1521 1522 1522 1523 1523 1523 1524 1523 1523 1522 1521 1521 1520 1520 1519 1518 1518 1517 1516 1515 1515 1514 1513 1512 1512 1511 1510 1510 1509 1509 1508 1507 1505 1503 1501 1500 1498 1497 1495 1494
1517 1518 1519 1520 1521 1521 1521 1521 1522 1522 1521 1521 1521 1520 1519 1518 1518 1517 1516 1516 1515 1514 1513 1512 1511 1510 1510 1509 1508 1507 1507 1507 1506 1505 1504 1502 1500 1498 1496 1495 1494 1493 1491